When you browse on this site, cookies collect data to enhance your experience and personalize the content and advertising you see.
Visit our Privacy Policy to learn more. By continuing to use the site, you agree to this use of cookies and data.
  • In Hungary
  • List of Countries
  • For 7 days
  • Water Temperature
  • Weather Map
  • News
  • Weather Widgets
  • user-avatar
    Login

    Hourly Weather Edgewood

    Today, 19 November, Tuesday

    Time Temperature Precipitation Wind Pressure Humidity
    00:00 +6°C° 0.3 mm 1 mps 755 mmHg 91%
    01:00 +6°C° 0.3 mm 1 mps 755 mmHg 93%
    02:00 +6°C° 0.1 mm 1 mps 755 mmHg 93%
    03:00 +5°C° 0.1 mm 2 mps 755 mmHg 94%
    04:00 +6°C° 0.1 mm 2 mps 754 mmHg 94%
    05:00 +5°C° 0 mm 2 mps 755 mmHg 93%
    06:00 +5°C° 0 mm 2 mps 755 mmHg 93%
    07:00 +4°C° 0 mm 2 mps 756 mmHg 92%
    08:00 +6°C° 0 mm 2 mps 756 mmHg 84%
    09:00 +7°C° 0 mm 2 mps 756 mmHg 77%
    10:00 +9°C° 0 mm 2 mps 756 mmHg 69%
    11:00 +10°C° 0 mm 2 mps 756 mmHg 65%
    12:00 +12°C° 0 mm 2 mps 755 mmHg 60%
    13:00 +12°C° 0 mm 2 mps 755 mmHg 56%
    14:00 +12°C° 0 mm 2 mps 755 mmHg 58%
    15:00 +12°C° 0 mm 1 mps 755 mmHg 61%
    16:00 +11°C° 0 mm 1 mps 756 mmHg 63%
    17:00 +10°C° 0 mm 1 mps 756 mmHg 66%
    18:00 +8°C° 0 mm 2 mps 756 mmHg 69%
    19:00 +7°C° 0 mm 2 mps 756 mmHg 73%
    20:00 +7°C° 0 mm 2 mps 757 mmHg 74%
    21:00 +5°C° 0 mm 3 mps 757 mmHg 75%
    22:00 +5°C° 0 mm 4 mps 757 mmHg 75%
    23:00 +4°C° 0 mm 3 mps 757 mmHg 75%

    Tomorrow, 20 November, Wednesday

    Time Temperature Precipitation Wind Pressure Humidity
    00:00 +4°C° 0 mm 3 mps 757 mmHg 75%
    01:00 +5°C° 0 mm 2 mps 757 mmHg 75%
    02:00 +4°C° 0 mm 3 mps 758 mmHg 75%
    03:00 +4°C° 0 mm 3 mps 758 mmHg 75%
    04:00 +4°C° 0 mm 3 mps 758 mmHg 75%
    05:00 +3°C° 0 mm 3 mps 759 mmHg 76%
    06:00 +3°C° 0 mm 3 mps 759 mmHg 76%
    07:00 +3°C° 0 mm 3 mps 759 mmHg 77%
    08:00 +4°C° 0 mm 4 mps 760 mmHg 72%
    09:00 +6°C° 0 mm 5 mps 760 mmHg 67%
    10:00 +7°C° 0 mm 5 mps 761 mmHg 63%
    11:00 +7°C° 0 mm 5 mps 761 mmHg 60%
    12:00 +8°C° 0 mm 6 mps 761 mmHg 58%
    13:00 +8°C° 0 mm 6 mps 761 mmHg 56%
    14:00 +8°C° 0 mm 6 mps 761 mmHg 57%
    15:00 +7°C° 0 mm 6 mps 761 mmHg 58%
    16:00 +7°C° 0 mm 5 mps 762 mmHg 59%
    17:00 +6°C° 0 mm 5 mps 762 mmHg 60%
    18:00 +6°C° 0 mm 5 mps 763 mmHg 62%
    19:00 +5°C° 0 mm 5 mps 764 mmHg 64%
    20:00 +3°C° 0 mm 5 mps 764 mmHg 66%
    21:00 +3°C° 0 mm 5 mps 764 mmHg 68%
    22:00 +3°C° 0 mm 4 mps 765 mmHg 70%
    23:00 +3°C° 0 mm 4 mps 765 mmHg 74%

    Day after tomorrow, 21 November, Thursday

    Time Temperature Precipitation Wind Pressure Humidity
    00:00 +1°C° 0 mm 4 mps 765 mmHg 77%
    01:00 +1°C° 0 mm 4 mps 765 mmHg 80%
    02:00 +1°C° 0 mm 4 mps 766 mmHg 81%
    03:00 +1°C° 0 mm 4 mps 766 mmHg 82%
    04:00 0°C° 0 mm 4 mps 766 mmHg 82%
    05:00 +1°C° 0 mm 3 mps 766 mmHg 83%
    06:00 +1°C° 0 mm 3 mps 766 mmHg 85%
    07:00 0°C° 0 mm 3 mps 767 mmHg 86%
    08:00 +2°C° 0 mm 3 mps 767 mmHg 79%
    09:00 +5°C° 0 mm 2 mps 767 mmHg 72%
    10:00 +6°C° 0 mm 2 mps 767 mmHg 65%
    11:00 +7°C° 0 mm 2 mps 766 mmHg 61%
    12:00 +8°C° 0 mm 2 mps 766 mmHg 57%
    13:00 +10°C° 0 mm 1 mps 765 mmHg 53%
    14:00 +9°C° 0 mm 2 mps 765 mmHg 55%
    15:00 +9°C° 0 mm 2 mps 765 mmHg 58%
    16:00 +8°C° 0 mm 2 mps 764 mmHg 60%
    17:00 +8°C° 0 mm 2 mps 764 mmHg 62%
    18:00 +7°C° 0 mm 2 mps 764 mmHg 65%
    19:00 +7°C° 0 mm 3 mps 764 mmHg 67%
    20:00 +7°C° 0 mm 3 mps 763 mmHg 69%
    21:00 +7°C° 0 mm 3 mps 763 mmHg 70%
    22:00 +7°C° 0 mm 4 mps 763 mmHg 72%
    23:00 +7°C° 0 mm 4 mps 763 mmHg 74%

    22 November, Friday

    Time Temperature Precipitation Wind Pressure Humidity
    00:00 +7°C° 0 mm 4 mps 762 mmHg 75%
    01:00 +7°C° 0 mm 4 mps 761 mmHg 77%
    02:00 +7°C° 0 mm 4 mps 761 mmHg 78%
    03:00 +7°C° 0 mm 4 mps 761 mmHg 79%
    04:00 +8°C° 0 mm 4 mps 760 mmHg 81%
    05:00 +7°C° 0 mm 4 mps 760 mmHg 84%
    06:00 +7°C° 0 mm 4 mps 759 mmHg 87%
    07:00 +7°C° 0 mm 3 mps 759 mmHg 90%
    08:00 +8°C° 0 mm 4 mps 759 mmHg 84%
    09:00 +10°C° 0 mm 4 mps 759 mmHg 79%
    10:00 +12°C° 0 mm 5 mps 759 mmHg 73%
    11:00 +12°C° 0.1 mm 5 mps 758 mmHg 72%
    12:00 +12°C° 0.1 mm 5 mps 757 mmHg 71%
    13:00 +13°C° 0.1 mm 4 mps 756 mmHg 70%
    14:00 +13°C° 0 mm 4 mps 755 mmHg 70%
    15:00 +13°C° 0 mm 4 mps 755 mmHg 70%
    16:00 +13°C° 0 mm 4 mps 754 mmHg 70%
    17:00 +12°C° 0.5 mm 5 mps 755 mmHg 75%
    18:00 +12°C° 0.5 mm 5 mps 755 mmHg 81%
    19:00 +10°C° 0.5 mm 5 mps 755 mmHg 86%
    20:00 +10°C° 0.3 mm 5 mps 755 mmHg 87%
    21:00 +10°C° 0.3 mm 5 mps 756 mmHg 87%
    22:00 +10°C° 0.3 mm 5 mps 756 mmHg 88%
    23:00 +9°C° 0.1 mm 5 mps 757 mmHg 83%

    23 November, Saturday

    Time Temperature Precipitation Wind Pressure Humidity
    00:00 +7°C° 0.1 mm 5 mps 757 mmHg 78%
    01:00 +5°C° 0.1 mm 5 mps 758 mmHg 73%
    02:00 +5°C° 0 mm 5 mps 758 mmHg 72%
    03:00 +3°C° 0 mm 5 mps 759 mmHg 71%
    04:00 +3°C° 0 mm 5 mps 760 mmHg 69%
    05:00 +2°C° 0 mm 5 mps 760 mmHg 70%
    06:00 +2°C° 0 mm 5 mps 761 mmHg 70%
    07:00 +1°C° 0 mm 5 mps 761 mmHg 71%
    08:00 +1°C° 0 mm 4 mps 762 mmHg 66%
    09:00 +3°C° 0 mm 4 mps 762 mmHg 61%
    10:00 +3°C° 0 mm 4 mps 763 mmHg 56%
    11:00 +4°C° 0 mm 4 mps 762 mmHg 53%
    12:00 +4°C° 0 mm 3 mps 762 mmHg 50%
    13:00 +5°C° 0 mm 3 mps 761 mmHg 47%
    14:00 +6°C° 0 mm 2 mps 761 mmHg 48%
    15:00 +6°C° 0 mm 2 mps 760 mmHg 49%
    16:00 +6°C° 0 mm 1 mps 760 mmHg 49%
    17:00 +6°C° 0 mm 1 mps 760 mmHg 51%
    18:00 +5°C° 0 mm 1 mps 761 mmHg 53%
    19:00 +4°C° 0 mm 1 mps 761 mmHg 54%
    20:00 +4°C° 0 mm 1 mps 761 mmHg 56%
    21:00 +3°C° 0 mm 1 mps 761 mmHg 57%
    22:00 +2°C° 0 mm 2 mps 761 mmHg 58%
    23:00 +1°C° 0 mm 2 mps 760 mmHg 59%

    24 November, Sunday

    Time Temperature Precipitation Wind Pressure Humidity
    00:00 +1°C° 0 mm 2 mps 760 mmHg 60%
    01:00 +1°C° 0 mm 2 mps 759 mmHg 61%
    02:00 +1°C° 0 mm 2 mps 759 mmHg 61%
    03:00 -1°C° 0 mm 2 mps 759 mmHg 61%
    04:00 -1°C° 0 mm 2 mps 759 mmHg 61%
    05:00 -1°C° 0 mm 2 mps 759 mmHg 62%
    06:00 -1°C° 0 mm 2 mps 760 mmHg 63%
    07:00 -1°C° 0 mm 2 mps 760 mmHg 63%
    08:00 +2°C° 0 mm 2 mps 760 mmHg 58%
    09:00 +3°C° 0 mm 3 mps 760 mmHg 52%
    10:00 +5°C° 0 mm 4 mps 760 mmHg 46%
    11:00 +6°C° 0 mm 4 mps 759 mmHg 45%
    12:00 +6°C° 0 mm 5 mps 759 mmHg 44%
    13:00 +7°C° 0 mm 5 mps 758 mmHg 43%
    14:00 +7°C° 0 mm 4 mps 758 mmHg 46%
    15:00 +7°C° 0 mm 4 mps 758 mmHg 50%
    16:00 +8°C° 0 mm 3 mps 758 mmHg 53%
    17:00 +7°C° 0 mm 3 mps 759 mmHg 58%
    18:00 +6°C° 0 mm 2 mps 759 mmHg 63%
    19:00 +5°C° 0 mm 2 mps 760 mmHg 68%
    20:00 +4°C° 0 mm 2 mps 760 mmHg 69%
    21:00 +4°C° 0 mm 2 mps 760 mmHg 70%
    22:00 +3°C° 0 mm 2 mps 760 mmHg 71%
    23:00 +3°C° 0 mm 2 mps 761 mmHg 72%
    Show more